Time,TemperatureF,DewpointF,PressureIn,WindDirection,WindDirectionDegrees,WindSpeedMPH,WindSpeedGustMPH,Humidity,HourlyPrecipIn,Conditions,Clouds,dailyrainin,SoftwareType,DateUTC
2013-06-14 00:01:00,54.4,53.0,29.73,SE,124,0.0,0.0,95,0.01,-RA,,0.00,WeatherDisplay:10.37,2013-06-14 04:01:00,
2013-06-14 00:03:00,54.4,53.0,29.73,SE,125,0.0,0.0,95,0.01,-RA,,0.00,WeatherDisplay:10.37,2013-06-14 04:03:00,
2013-06-14 00:08:00,54.2,52.8,29.73,SE,124,0.0,0.0,95,0.01,-RA,,0.00,WeatherDisplay:10.37,2013-06-14 04:08:00,
2013-06-14 00:13:00,54.2,52.8,29.73,SE,124,0.0,0.0,95,0.00,-RA,,0.00,WeatherDisplay:10.37,2013-06-14 04:13:00,
2013-06-14 00:18:00,54.2,52.8,29.73,SE,125,0.0,0.0,95,0.00,-RA,,0.00,WeatherDisplay:10.37,2013-06-14 04:18:00,
2013-06-14 00:23:00,54.2,52.8,29.73,SE,125,0.0,0.0,95,0.00,-RA,,0.00,WeatherDisplay:10.37,2013-06-14 04:23:00,
2013-06-14 00:28:00,54.2,52.8,29.73,SE,125,0.0,0.0,95,0.00,-RA,,0.00,WeatherDisplay:10.37,2013-06-14 04:28:00,
2013-06-14 00:33:00,54.2,52.8,29.72,SE,125,0.0,0.0,95,0.00,-RA,,0.00,WeatherDisplay:10.37,2013-06-14 04:33:00,
2013-06-14 00:38:00,54.2,52.8,29.72,SE,125,0.0,0.0,95,0.00,-RA,,0.00,WeatherDisplay:10.37,2013-06-14 04:38:00,
2013-06-14 00:43:00,54.2,52.8,29.72,SE,125,0.6,2.3,95,0.00,-RA,,0.01,WeatherDisplay:10.37,2013-06-14 04:43:00,
2013-06-14 00:48:00,54.1,52.7,29.72,SE,125,0.6,0.0,95,0.01,-RA,,0.01,WeatherDisplay:10.37,2013-06-14 04:48:00,
2013-06-14 00:53:00,54.1,52.7,29.72,SE,125,0.0,1.2,95,0.01,-RA,,0.01,WeatherDisplay:10.37,2013-06-14 04:53:00,
2013-06-14 00:58:00,54.1,52.7,29.72,SE,125,0.0,1.2,95,0.01,-RA,,0.01,WeatherDisplay:10.37,2013-06-14 04:58:00,
2013-06-14 01:03:00,54.1,52.7,29.71,SE,125,0.3,2.3,95,0.02,-RA,,0.02,WeatherDisplay:10.37,2013-06-14 05:03:00,
2013-06-14 01:08:00,54.1,52.7,29.71,SE,125,0.0,0.0,95,0.02,-RA,,0.02,WeatherDisplay:10.37,2013-06-14 05:08:00,
2013-06-14 01:13:00,53.9,52.5,29.71,SE,125,0.0,0.0,95,0.02,-RA,,0.02,WeatherDisplay:10.37,2013-06-14 05:13:00,
2013-06-14 01:18:00,53.9,52.5,29.71,SE,125,0.0,0.0,95,0.02,-RA,,0.02,WeatherDisplay:10.37,2013-06-14 05:18:00,
2013-06-14 01:23:00,53.9,52.5,29.71,SE,125,0.0,0.0,95,0.02,-RA,,0.02,WeatherDisplay:10.37,2013-06-14 05:23:00,
2013-06-14 01:28:00,53.8,52.4,29.71,SE,125,0.1,2.0,95,0.02,-RA,,0.02,WeatherDisplay:10.37,2013-06-14 05:28:00,
2013-06-14 01:33:00,53.8,52.4,29.71,SE,125,0.2,1.0,95,0.02,-RA,,0.02,WeatherDisplay:10.37,2013-06-14 05:33:00,
2013-06-14 01:38:00,53.8,52.4,29.71,SE,125,0.0,0.0,95,0.02,-RA,,0.02,WeatherDisplay:10.37,2013-06-14 05:38:00,
2013-06-14 01:43:00,53.8,52.4,29.71,SE,124,0.0,0.0,95,0.01,-RA,,0.02,WeatherDisplay:10.37,2013-06-14 05:43:00,
2013-06-14 01:48:00,53.8,52.4,29.71,SE,125,0.0,0.0,95,0.02,-RA,,0.03,WeatherDisplay:10.37,2013-06-14 05:48:00,
2013-06-14 01:53:00,53.6,52.2,29.70,SE,124,0.0,0.0,95,0.02,-RA,,0.03,WeatherDisplay:10.37,2013-06-14 05:53:00,
2013-06-14 01:58:00,53.6,52.2,29.70,SE,125,0.0,0.0,95,0.02,-RA,,0.03,WeatherDisplay:10.37,2013-06-14 05:58:00,
2013-06-14 02:03:00,53.6,52.2,29.70,SE,125,0.0,0.0,95,0.01,-RA,,0.03,WeatherDisplay:10.37,2013-06-14 06:03:00,
2013-06-14 02:08:00,53.6,52.2,29.70,SE,125,0.9,2.3,95,0.01,-RA,,0.03,WeatherDisplay:10.37,2013-06-14 06:08:00,
2013-06-14 02:13:00,53.6,52.2,29.70,SE,125,0.0,0.0,95,0.02,-RA,,0.04,WeatherDisplay:10.37,2013-06-14 06:13:00,
2013-06-14 02:18:00,53.6,52.2,29.70,SE,125,0.1,1.0,95,0.02,-RA,,0.04,WeatherDisplay:10.37,2013-06-14 06:18:00,
2013-06-14 02:23:00,53.6,52.2,29.70,SE,125,0.0,0.0,95,0.02,-RA,,0.04,WeatherDisplay:10.37,2013-06-14 06:23:00,
2013-06-14 02:28:00,53.6,52.2,29.70,SE,125,0.0,0.0,95,0.02,-RA,,0.04,WeatherDisplay:10.37,2013-06-14 06:28:00,
2013-06-14 02:33:00,53.6,52.2,29.69,SE,125,0.1,1.2,95,0.02,-RA,,0.04,WeatherDisplay:10.37,2013-06-14 06:33:00,
2013-06-14 02:38:00,53.6,52.2,29.69,SE,125,0.0,0.0,95,0.02,-RA,,0.04,WeatherDisplay:10.37,2013-06-14 06:38:00,
2013-06-14 02:43:00,53.6,52.2,29.69,SE,125,0.0,0.0,95,0.03,-RA,,0.05,WeatherDisplay:10.37,2013-06-14 06:43:00,
2013-06-14 02:48:00,53.6,52.2,29.69,SE,127,0.0,0.0,95,0.02,-RA,,0.05,WeatherDisplay:10.37,2013-06-14 06:48:00,
2013-06-14 02:53:00,53.6,52.2,29.69,SE,124,0.2,2.3,95,0.02,-RA,,0.05,WeatherDisplay:10.37,2013-06-14 06:53:00,
2013-06-14 02:58:00,53.6,52.2,29.69,SE,124,0.3,2.0,95,0.03,-RA,,0.06,WeatherDisplay:10.37,2013-06-14 06:58:00,
2013-06-14 03:03:00,53.5,52.1,29.69,SE,124,0.0,1.2,95,0.03,-RA,,0.06,WeatherDisplay:10.37,2013-06-14 07:03:00,
2013-06-14 03:08:00,53.5,52.1,29.69,ESE,121,0.0,0.0,95,0.03,-RA,,0.06,WeatherDisplay:10.37,2013-06-14 07:08:00,
2013-06-14 03:13:00,53.5,52.1,29.69,ESE,120,0.6,3.5,95,0.02,-RA,,0.06,WeatherDisplay:10.37,2013-06-14 07:13:00,
2013-06-14 03:18:00,53.5,52.1,29.69,ESE,120,0.6,2.0,95,0.03,-RA,,0.07,WeatherDisplay:10.37,2013-06-14 07:18:00,
2013-06-14 03:23:00,53.3,51.9,29.69,ESE,120,0.0,0.0,95,0.04,-RA,,0.08,WeatherDisplay:10.37,2013-06-14 07:23:00,
2013-06-14 03:28:00,53.3,51.9,29.70,ESE,121,1.2,3.0,95,0.04,-RA,,0.08,WeatherDisplay:10.37,2013-06-14 07:28:00,
2013-06-14 03:33:00,53.3,51.9,29.70,North,358,0.6,2.3,95,0.05,-RA,,0.09,WeatherDisplay:10.37,2013-06-14 07:33:00,
2013-06-14 03:38:00,53.2,51.8,29.70,NNW,348,0.8,3.5,95,0.05,-RA,,0.09,WeatherDisplay:10.37,2013-06-14 07:38:00,
2013-06-14 03:43:00,53.2,51.8,29.70,North,2,0.2,3.5,95,0.04,-RA,,0.09,WeatherDisplay:10.37,2013-06-14 07:43:00,
2013-06-14 03:48:00,53.0,51.6,29.70,North,2,0.8,2.3,95,0.04,-RA,,0.09,WeatherDisplay:10.37,2013-06-14 07:48:00,
2013-06-14 03:53:00,53.0,51.6,29.70,North,2,0.5,2.0,95,0.05,-RA,,0.10,WeatherDisplay:10.37,2013-06-14 07:53:00,
2013-06-14 03:58:00,52.9,51.5,29.70,NNW,341,2.8,5.8,95,0.04,-RA,,0.10,WeatherDisplay:10.37,2013-06-14 07:58:00,
2013-06-14 04:03:00,52.9,51.5,29.70,North,0,0.9,2.3,95,0.05,-RA,,0.11,WeatherDisplay:10.37,2013-06-14 08:03:00,
2013-06-14 04:08:00,52.8,51.4,29.71,North,358,0.8,2.3,95,0.06,-RA,,0.12,WeatherDisplay:10.37,2013-06-14 08:08:00,
2013-06-14 04:13:00,52.8,51.4,29.71,North,358,0.0,0.0,95,0.06,-RA,,0.12,WeatherDisplay:10.37,2013-06-14 08:13:00,
2013-06-14 04:18:00,52.8,51.4,29.71,North,358,0.0,0.0,95,0.06,-RA,,0.13,WeatherDisplay:10.37,2013-06-14 08:18:00,
2013-06-14 04:23:00,52.8,51.4,29.71,North,358,0.0,0.0,95,0.06,-RA,,0.14,WeatherDisplay:10.37,2013-06-14 08:23:00,
2013-06-14 04:28:00,52.8,51.4,29.71,North,358,0.0,0.0,95,0.06,-RA,,0.14,WeatherDisplay:10.37,2013-06-14 08:28:00,
2013-06-14 04:33:00,52.8,51.4,29.71,North,0,0.0,0.0,95,0.06,-RA,,0.15,WeatherDisplay:10.37,2013-06-14 08:33:00,
2013-06-14 04:38:00,52.6,51.2,29.71,North,0,0.0,0.0,95,0.06,-RA,,0.15,WeatherDisplay:10.37,2013-06-14 08:38:00,
2013-06-14 04:43:00,52.6,51.2,29.71,North,358,0.0,0.0,95,0.07,-RA,,0.16,WeatherDisplay:10.37,2013-06-14 08:43:00,
2013-06-14 04:48:00,52.6,51.2,29.71,North,358,0.0,0.0,95,0.07,-RA,,0.16,WeatherDisplay:10.37,2013-06-14 08:48:00,
2013-06-14 04:53:00,52.6,51.2,29.71,North,0,0.0,0.0,95,0.07,-RA,,0.17,WeatherDisplay:10.37,2013-06-14 08:53:00,
2013-06-14 04:58:00,52.6,51.2,29.71,North,0,0.0,0.0,95,0.08,-RA,,0.18,WeatherDisplay:10.37,2013-06-14 08:58:00,
2013-06-14 05:03:00,52.6,51.2,29.71,North,0,0.0,0.0,95,0.07,-RA,,0.18,WeatherDisplay:10.37,2013-06-14 09:03:00,
2013-06-14 05:08:00,52.6,51.2,29.71,North,0,0.0,0.0,95,0.06,-RA,,0.18,WeatherDisplay:10.37,2013-06-14 09:08:00,
2013-06-14 05:13:00,52.5,51.1,29.71,North,358,0.0,0.0,95,0.06,-RA,,0.18,WeatherDisplay:10.37,2013-06-14 09:13:00,
2013-06-14 05:18:00,52.5,51.1,29.71,North,357,0.0,0.0,95,0.05,-RA,,0.18,WeatherDisplay:10.37,2013-06-14 09:18:00,
2013-06-14 05:23:00,52.5,51.1,29.71,North,358,0.0,0.0,95,0.04,-RA,,0.18,WeatherDisplay:10.37,2013-06-14 09:23:00,
2013-06-14 05:28:00,52.5,51.4,29.71,NNE,15,0.3,2.0,96,0.04,-RA,,0.18,WeatherDisplay:10.37,2013-06-14 09:28:00,
2013-06-14 05:33:00,52.5,51.4,29.71,NNE,28,0.0,0.0,96,0.04,-RA,,0.19,WeatherDisplay:10.37,2013-06-14 09:33:00,
2013-06-14 05:38:00,52.6,51.5,29.71,NNE,29,0.0,0.0,96,0.04,-RA,,0.19,WeatherDisplay:10.37,2013-06-14 09:38:00,
2013-06-14 05:43:00,52.6,51.5,29.71,NNE,28,0.0,0.0,96,0.03,-RA,,0.19,WeatherDisplay:10.37,2013-06-14 09:43:00,
2013-06-14 05:48:00,52.6,51.5,29.71,NNE,29,0.0,0.0,96,0.03,-RA,,0.19,WeatherDisplay:10.37,2013-06-14 09:48:00,
2013-06-14 05:53:00,52.6,51.5,29.71,NNE,26,0.0,0.0,96,0.02,-RA,,0.19,WeatherDisplay:10.37,2013-06-14 09:53:00,
2013-06-14 05:58:00,52.6,51.5,29.71,NNE,29,0.0,0.0,96,0.01,-RA,,0.19,WeatherDisplay:10.37,2013-06-14 09:58:00,
2013-06-14 06:03:00,52.6,51.5,29.71,NNE,29,0.0,0.0,96,0.01,OVC,,0.19,WeatherDisplay:10.37,2013-06-14 10:03:00,
2013-06-14 06:08:00,52.6,51.5,29.71,NNE,28,0.0,0.0,96,0.01,OVC,,0.19,WeatherDisplay:10.37,2013-06-14 10:08:00,
2013-06-14 06:13:00,52.6,51.5,29.71,NNE,29,0.0,0.0,96,0.01,OVC,,0.19,WeatherDisplay:10.37,2013-06-14 10:13:00,
2013-06-14 06:18:00,52.8,51.7,29.71,NNE,28,0.0,0.0,96,0.01,OVC,,0.19,WeatherDisplay:10.37,2013-06-14 10:18:00,
2013-06-14 06:23:00,52.8,51.7,29.71,NNE,28,0.0,0.0,96,0.01,OVC,,0.19,WeatherDisplay:10.37,2013-06-14 10:23:00,
2013-06-14 06:28:00,52.8,51.7,29.71,ESE,105,0.6,2.3,96,0.01,OVC,,0.19,WeatherDisplay:10.37,2013-06-14 10:28:00,
2013-06-14 06:33:00,52.8,51.7,29.72,ESE,108,0.0,1.2,96,0.00,OVC,,0.19,WeatherDisplay:10.37,2013-06-14 10:33:00,
2013-06-14 06:38:00,52.8,51.7,29.72,ESE,107,0.0,0.0,96,0.00,OVC,,0.19,WeatherDisplay:10.37,2013-06-14 10:38:00,
2013-06-14 06:43:00,52.8,51.7,29.72,ESE,108,0.0,0.0,96,0.00,OVC,,0.19,WeatherDisplay:10.37,2013-06-14 10:43:00,
2013-06-14 06:48:00,52.9,51.8,29.72,ESE,107,0.0,0.0,96,0.00,OVC,,0.19,WeatherDisplay:10.37,2013-06-14 10:48:00,
2013-06-14 06:53:00,52.9,51.8,29.72,ESE,108,0.0,0.0,96,0.00,OVC,,0.19,WeatherDisplay:10.37,2013-06-14 10:53:00,
2013-06-14 06:58:00,52.9,51.8,29.72,ESE,107,0.0,0.0,96,0.00,OVC,,0.19,WeatherDisplay:10.37,2013-06-14 10:58:00,
2013-06-14 07:03:00,53.0,51.9,29.72,ESE,108,0.0,0.0,96,0.00,BKN,,0.19,WeatherDisplay:10.37,2013-06-14 11:03:00,
2013-06-14 07:08:00,53.2,52.1,29.72,ESE,107,0.0,0.0,96,0.00,BKN,,0.19,WeatherDisplay:10.37,2013-06-14 11:08:00,
2013-06-14 07:13:00,53.3,52.2,29.72,ESE,107,0.0,0.0,96,0.00,BKN,,0.19,WeatherDisplay:10.37,2013-06-14 11:13:00,
2013-06-14 07:18:00,53.5,52.4,29.73,ESE,110,0.0,0.0,96,0.00,BKN,,0.19,WeatherDisplay:10.37,2013-06-14 11:18:00,
2013-06-14 07:23:00,53.6,52.5,29.73,ESE,105,0.0,0.0,96,0.00,BKN,,0.19,WeatherDisplay:10.37,2013-06-14 11:23:00,
2013-06-14 07:28:00,53.8,52.7,29.73,ESE,108,0.0,0.0,96,0.00,BKN,,0.19,WeatherDisplay:10.37,2013-06-14 11:28:00,
2013-06-14 07:33:00,53.9,52.8,29.73,ESE,107,0.0,0.0,96,0.00,BKN,,0.19,WeatherDisplay:10.37,2013-06-14 11:33:00,
2013-06-14 07:38:00,54.2,53.1,29.73,ESE,108,0.7,2.3,96,0.00,BKN,,0.19,WeatherDisplay:10.37,2013-06-14 11:38:00,
2013-06-14 07:43:00,54.4,53.3,29.73,ESE,108,0.7,2.3,96,0.00,BKN,,0.19,WeatherDisplay:10.37,2013-06-14 11:43:00,
2013-06-14 07:48:00,54.7,53.6,29.73,ESE,110,0.0,0.0,96,0.00,BKN,,0.19,WeatherDisplay:10.37,2013-06-14 11:48:00,
2013-06-14 07:53:00,54.5,53.4,29.73,ESE,108,0.0,0.0,96,0.00,BKN,,0.19,WeatherDisplay:10.37,2013-06-14 11:53:00,
2013-06-14 07:58:00,54.5,53.4,29.73,ESE,108,0.0,0.0,96,0.00,BKN,,0.19,WeatherDisplay:10.37,2013-06-14 11:58:00,
2013-06-14 08:03:00,54.8,53.7,29.74,ESE,107,0.0,0.0,96,0.00,OVC,,0.19,WeatherDisplay:10.37,2013-06-14 12:03:00,
2013-06-14 08:08:00,55.0,53.9,29.74,ESE,107,0.0,0.0,96,0.00,OVC,,0.19,WeatherDisplay:10.37,2013-06-14 12:08:00,
2013-06-14 08:13:00,55.3,54.2,29.74,ESE,108,0.1,2.3,96,0.00,OVC,,0.19,WeatherDisplay:10.37,2013-06-14 12:13:00,
2013-06-14 08:18:00,55.4,54.3,29.74,ESE,107,0.0,1.2,96,0.00,OVC,,0.19,WeatherDisplay:10.37,2013-06-14 12:18:00,
2013-06-14 08:23:00,55.7,54.6,29.74,ESE,107,0.0,1.2,96,0.00,OVC,,0.19,WeatherDisplay:10.37,2013-06-14 12:23:00,
2013-06-14 08:28:00,56.0,54.9,29.74,ESE,110,0.0,0.0,96,0.00,OVC,,0.19,WeatherDisplay:10.37,2013-06-14 12:28:00,
2013-06-14 08:33:00,56.2,55.1,29.74,ESE,107,0.0,0.0,96,0.00,OVC,,0.19,WeatherDisplay:10.37,2013-06-14 12:33:00,
2013-06-14 08:38:00,56.3,55.2,29.74,ESE,108,0.0,0.0,96,0.00,OVC,,0.19,WeatherDisplay:10.37,2013-06-14 12:38:00,
2013-06-14 08:43:00,56.4,55.3,29.74,ESE,108,0.7,2.3,96,0.00,OVC,,0.19,WeatherDisplay:10.37,2013-06-14 12:43:00,
2013-06-14 08:48:00,56.4,55.3,29.74,ESE,108,0.0,0.0,96,0.00,OVC,,0.19,WeatherDisplay:10.37,2013-06-14 12:48:00,
2013-06-14 08:53:00,56.4,55.3,29.74,ESE,108,0.0,0.0,96,0.00,OVC,,0.19,WeatherDisplay:10.37,2013-06-14 12:53:00,
2013-06-14 08:58:00,56.6,55.5,29.74,ESE,108,0.0,1.2,96,0.00,OVC,,0.19,WeatherDisplay:10.37,2013-06-14 12:58:00,
2013-06-14 09:03:00,56.7,55.6,29.74,ESE,107,0.0,0.0,96,0.00,BKN,,0.19,WeatherDisplay:10.37,2013-06-14 13:03:00,
2013-06-14 09:08:00,56.7,55.6,29.74,ESE,108,0.1,1.0,96,0.00,BKN,,0.19,WeatherDisplay:10.37,2013-06-14 13:08:00,
2013-06-14 09:13:00,56.7,55.6,29.74,SSE,151,0.0,0.0,96,0.00,BKN,,0.19,WeatherDisplay:10.37,2013-06-14 13:13:00,
2013-06-14 09:18:00,56.7,55.3,29.74,SSE,149,0.0,0.0,95,0.00,BKN,,0.19,WeatherDisplay:10.37,2013-06-14 13:18:00,
2013-06-14 09:23:00,56.9,55.5,29.74,SSE,151,0.0,0.0,95,0.00,BKN,,0.19,WeatherDisplay:10.37,2013-06-14 13:23:00,
2013-06-14 09:28:00,56.9,55.5,29.74,SW,235,1.1,2.3,95,0.00,BKN,,0.19,WeatherDisplay:10.37,2013-06-14 13:28:00,
2013-06-14 09:33:00,56.9,55.5,29.74,NW,310,0.0,0.0,95,0.00,BKN,,0.19,WeatherDisplay:10.37,2013-06-14 13:33:00,
2013-06-14 09:38:00,56.9,55.5,29.74,NW,312,0.6,1.2,95,0.00,BKN,,0.19,WeatherDisplay:10.37,2013-06-14 13:38:00,
2013-06-14 09:43:00,57.2,55.5,29.74,NW,310,0.0,0.0,94,0.00,BKN,,0.19,WeatherDisplay:10.37,2013-06-14 13:43:00,
2013-06-14 09:48:00,57.7,56.0,29.74,NW,310,0.0,0.0,94,0.00,BKN,,0.19,WeatherDisplay:10.37,2013-06-14 13:48:00,
2013-06-14 09:53:00,58.1,56.1,29.74,West,279,2.5,3.5,93,0.00,BKN,,0.19,WeatherDisplay:10.37,2013-06-14 13:53:00,
2013-06-14 09:58:00,58.6,56.0,29.74,West,279,0.4,1.2,91,0.00,BKN,,0.19,WeatherDisplay:10.37,2013-06-14 13:58:00,
2013-06-14 10:03:00,58.9,55.4,29.74,North,2,3.0,4.6,88,0.00,SCT,,0.19,WeatherDisplay:10.37,2013-06-14 14:03:00,
2013-06-14 10:08:00,59.0,54.5,29.74,North,2,0.6,2.3,85,0.00,SCT,,0.19,WeatherDisplay:10.37,2013-06-14 14:08:00,
2013-06-14 10:13:00,59.2,53.0,29.74,NNE,21,0.9,2.3,80,0.00,SCT,,0.19,WeatherDisplay:10.37,2013-06-14 14:13:00,
2013-06-14 10:18:00,59.8,53.6,29.73,NE,52,0.7,2.3,80,0.00,SCT,,0.19,WeatherDisplay:10.37,2013-06-14 14:18:00,
2013-06-14 10:23:00,60.6,54.7,29.73,NNW,336,1.8,3.5,81,0.00,SCT,,0.19,WeatherDisplay:10.37,2013-06-14 14:23:00,
2013-06-14 10:28:00,61.2,54.3,29.73,North,1,2.2,3.5,78,0.00,SCT,,0.19,WeatherDisplay:10.37,2013-06-14 14:28:00,
2013-06-14 10:33:00,61.7,53.7,29.73,North,353,0.0,0.0,75,0.00,BKN,,0.19,WeatherDisplay:10.37,2013-06-14 14:33:00,
2013-06-14 10:38:00,62.3,54.6,29.73,NW,319,0.7,2.3,76,0.00,BKN,,0.19,WeatherDisplay:10.37,2013-06-14 14:38:00,
2013-06-14 10:43:00,62.6,53.8,29.73,NE,35,0.0,1.2,73,0.00,BKN,,0.19,WeatherDisplay:10.37,2013-06-14 14:43:00,
2013-06-14 10:48:00,63.4,55.7,29.73,NW,320,1.3,3.5,76,0.00,BKN,,0.19,WeatherDisplay:10.37,2013-06-14 14:48:00,
2013-06-14 10:53:00,64.4,57.0,29.73,NW,314,4.3,5.8,77,0.00,BKN,,0.19,WeatherDisplay:10.37,2013-06-14 14:53:00,
2013-06-14 10:58:00,64.5,54.5,29.73,North,7,0.5,3.5,70,0.00,BKN,,0.19,WeatherDisplay:10.37,2013-06-14 14:58:00,
2013-06-14 11:03:00,64.4,53.6,29.73,North,354,4.6,7.0,68,0.00,FEW,,0.19,WeatherDisplay:10.37,2013-06-14 15:03:00,
2013-06-14 11:08:00,64.0,54.0,29.73,NNW,344,0.7,2.3,70,0.00,FEW,,0.19,WeatherDisplay:10.37,2013-06-14 15:08:00,
2013-06-14 11:13:00,63.9,54.3,29.73,NNW,344,3.7,6.0,71,0.00,FEW,,0.19,WeatherDisplay:10.37,2013-06-14 15:13:00,
2013-06-14 11:18:00,63.6,54.8,29.73,WNW,288,2.4,3.5,73,0.00,FEW,,0.19,WeatherDisplay:10.37,2013-06-14 15:18:00,
2013-06-14 11:23:00,63.6,54.4,29.73,WNW,302,0.2,3.0,72,0.00,FEW,,0.19,WeatherDisplay:10.37,2013-06-14 15:23:00,
2013-06-14 11:28:00,64.0,54.8,29.73,WNW,290,0.7,1.0,72,0.00,FEW,,0.19,WeatherDisplay:10.37,2013-06-14 15:28:00,
2013-06-14 11:33:00,64.9,56.8,29.73,WNW,282,3.0,5.8,75,0.00,FEW,,0.19,WeatherDisplay:10.37,2013-06-14 15:33:00,
2013-06-14 11:38:00,65.3,55.3,29.73,NNW,336,3.5,4.6,70,0.00,FEW,,0.19,WeatherDisplay:10.37,2013-06-14 15:38:00,
2013-06-14 11:43:00,65.8,55.3,29.73,North,353,5.6,6.9,69,0.00,FEW,,0.19,WeatherDisplay:10.37,2013-06-14 15:43:00,
2013-06-14 11:48:00,65.5,55.5,29.73,West,268,3.4,7.0,70,0.00,FEW,,0.19,WeatherDisplay:10.37,2013-06-14 15:48:00,
2013-06-14 11:53:00,65.7,55.6,29.73,NW,320,2.2,5.8,70,0.00,FEW,,0.19,WeatherDisplay:10.37,2013-06-14 15:53:00,
2013-06-14 11:58:00,66.0,55.9,29.73,NW,312,1.3,3.5,70,0.00,FEW,,0.19,WeatherDisplay:10.37,2013-06-14 15:58:00,
2013-06-14 12:03:00,66.6,54.9,29.74,WSW,237,1.4,2.3,66,0.00,SCT,,0.19,WeatherDisplay:10.37,2013-06-14 16:03:00,
2013-06-14 12:08:00,67.5,56.6,29.74,West,279,2.6,4.6,68,0.00,SCT,,0.19,WeatherDisplay:10.37,2013-06-14 16:08:00,
2013-06-14 12:13:00,68.1,56.7,29.74,North,350,3.7,5.8,67,0.00,SCT,,0.19,WeatherDisplay:10.37,2013-06-14 16:13:00,
2013-06-14 12:18:00,68.6,56.8,29.73,WNW,303,1.3,2.3,66,0.00,SCT,,0.19,WeatherDisplay:10.37,2013-06-14 16:18:00,
2013-06-14 12:23:00,69.5,57.6,29.73,WNW,286,3.1,5.8,66,0.00,SCT,,0.19,WeatherDisplay:10.37,2013-06-14 16:23:00,
2013-06-14 12:28:00,69.1,55.5,29.74,NNE,32,0.0,1.2,62,0.00,SCT,,0.19,WeatherDisplay:10.37,2013-06-14 16:28:00,
2013-06-14 12:33:00,69.3,56.2,29.74,East,100,0.4,2.0,63,0.00,SCT,,0.19,WeatherDisplay:10.37,2013-06-14 16:33:00,
2013-06-14 12:38:00,70.0,58.5,29.73,WNW,302,1.7,4.6,67,0.00,SCT,,0.19,WeatherDisplay:10.37,2013-06-14 16:38:00,
2013-06-14 12:43:00,70.5,59.0,29.73,NW,305,4.1,6.9,67,0.00,SCT,,0.19,WeatherDisplay:10.37,2013-06-14 16:43:00,
2013-06-14 12:48:00,70.5,56.4,29.73,WNW,299,4.4,6.0,61,0.00,SCT,,0.19,WeatherDisplay:10.37,2013-06-14 16:48:00,
2013-06-14 12:53:00,70.5,56.4,29.73,West,272,1.3,4.6,61,0.00,SCT,,0.19,WeatherDisplay:10.37,2013-06-14 16:53:00,
2013-06-14 12:58:00,69.8,55.3,29.73,NNW,334,1.7,3.5,60,0.00,SCT,,0.19,WeatherDisplay:10.37,2013-06-14 16:58:00,
2013-06-14 13:03:00,69.8,55.7,29.73,West,269,0.7,6.0,61,0.00,SCT,,0.19,WeatherDisplay:10.37,2013-06-14 17:03:00,
2013-06-14 13:08:00,69.5,54.1,29.73,North,4,1.6,3.5,58,0.00,SCT,,0.19,WeatherDisplay:10.37,2013-06-14 17:08:00,
2013-06-14 13:13:00,69.5,55.0,29.73,NNE,12,1.6,3.5,60,0.00,SCT,,0.19,WeatherDisplay:10.37,2013-06-14 17:13:00,
2013-06-14 13:18:00,69.6,54.2,29.72,North,2,1.4,4.0,58,0.00,SCT,,0.19,WeatherDisplay:10.37,2013-06-14 17:18:00,
2013-06-14 13:23:00,70.0,56.8,29.72,NNW,330,2.1,3.5,63,0.00,SCT,,0.19,WeatherDisplay:10.37,2013-06-14 17:23:00,
2013-06-14 13:28:00,70.8,56.7,29.72,North,11,1.2,4.6,61,0.00,SCT,,0.19,WeatherDisplay:10.37,2013-06-14 17:28:00,
2013-06-14 13:33:00,71.2,55.2,29.72,WNW,283,3.6,6.9,57,0.00,SCT,,0.19,WeatherDisplay:10.37,2013-06-14 17:33:00,
2013-06-14 13:38:00,71.3,54.8,29.72,North,4,1.5,6.9,56,0.00,SCT,,0.19,WeatherDisplay:10.37,2013-06-14 17:38:00,
2013-06-14 13:43:00,71.7,53.7,29.72,NNW,340,6.3,9.2,53,0.00,SCT,,0.19,WeatherDisplay:10.37,2013-06-14 17:43:00,
2013-06-14 13:48:00,71.2,53.2,29.71,NW,326,0.5,3.5,53,0.00,SCT,,0.19,WeatherDisplay:10.37,2013-06-14 17:48:00,
2013-06-14 13:53:00,71.2,54.7,29.71,NNE,26,0.7,3.5,56,0.00,SCT,,0.19,WeatherDisplay:10.37,2013-06-14 17:53:00,
2013-06-14 13:58:00,71.0,52.5,29.71,NW,316,5.4,8.1,52,0.00,SCT,,0.19,WeatherDisplay:10.37,2013-06-14 17:58:00,
2013-06-14 14:03:00,71.2,53.7,29.71,WNW,297,0.1,0.0,54,0.00,SCT,,0.19,WeatherDisplay:10.37,2013-06-14 18:03:00,
2013-06-14 14:08:00,71.5,51.9,29.71,North,11,3.6,6.9,50,0.00,SCT,,0.19,WeatherDisplay:10.37,2013-06-14 18:08:00,
2013-06-14 14:13:00,72.0,54.9,29.71,NNW,329,4.8,10.0,55,0.00,SCT,,0.19,WeatherDisplay:10.37,2013-06-14 18:13:00,
2013-06-14 14:18:00,72.2,49.1,29.71,NNE,21,5.9,10.4,44,0.00,SCT,,0.19,WeatherDisplay:10.37,2013-06-14 18:18:00,
2013-06-14 14:23:00,72.0,50.7,29.71,NE,52,4.9,8.1,47,0.00,SCT,,0.19,WeatherDisplay:10.37,2013-06-14 18:23:00,
2013-06-14 14:28:00,72.4,52.2,29.72,NE,35,7.3,11.5,49,0.00,SCT,,0.19,WeatherDisplay:10.37,2013-06-14 18:28:00,
2013-06-14 14:33:00,73.0,52.1,29.72,NNW,345,3.6,6.9,48,0.00,SCT,,0.19,WeatherDisplay:10.37,2013-06-14 18:33:00,
2013-06-14 14:38:00,73.7,52.2,29.71,North,9,6.0,11.0,47,0.00,SCT,,0.19,WeatherDisplay:10.37,2013-06-14 18:38:00,
2013-06-14 14:43:00,74.3,51.6,29.71,West,279,4.2,9.2,45,0.00,SCT,,0.19,WeatherDisplay:10.37,2013-06-14 18:43:00,
2013-06-14 14:48:00,74.6,53.6,29.71,North,5,1.3,3.5,48,0.00,SCT,,0.19,WeatherDisplay:10.37,2013-06-14 18:48:00,
2013-06-14 14:53:00,75.0,49.7,29.71,NNE,14,3.1,7.0,41,0.00,SCT,,0.19,WeatherDisplay:10.37,2013-06-14 18:53:00,
2013-06-14 14:58:00,75.1,51.7,29.71,WNW,285,2.1,3.5,44,0.00,SCT,,0.19,WeatherDisplay:10.37,2013-06-14 18:58:00,
2013-06-14 15:03:00,75.3,51.9,29.71,NE,38,2.2,5.8,44,0.00,SCT,,0.19,WeatherDisplay:10.37,2013-06-14 19:03:00,
2013-06-14 15:08:00,74.8,48.2,29.71,North,4,3.5,8.1,39,0.00,SCT,,0.19,WeatherDisplay:10.37,2013-06-14 19:08:00,
2013-06-14 15:13:00,75.0,48.4,29.71,NW,310,5.2,8.1,39,0.00,SCT,,0.19,WeatherDisplay:10.37,2013-06-14 19:13:00,
2013-06-14 15:18:00,74.8,49.5,29.71,NE,41,2.3,4.6,41,0.00,SCT,,0.19,WeatherDisplay:10.37,2013-06-14 19:18:00,
2013-06-14 15:23:00,74.4,49.2,29.70,NE,45,1.3,3.5,41,0.00,SCT,,0.19,WeatherDisplay:10.37,2013-06-14 19:23:00,
2013-06-14 15:28:00,74.1,48.9,29.70,NNE,24,5.1,6.9,41,0.00,SCT,,0.19,WeatherDisplay:10.37,2013-06-14 19:28:00,
2013-06-14 15:33:00,74.1,51.4,29.71,North,2,2.4,4.0,45,0.00,SCT,,0.19,WeatherDisplay:10.37,2013-06-14 19:33:00,
2013-06-14 15:38:00,74.3,52.2,29.71,North,11,2.2,3.5,46,0.00,SCT,,0.19,WeatherDisplay:10.37,2013-06-14 19:38:00,
2013-06-14 15:43:00,74.4,50.4,29.71,NNE,33,3.3,7.0,43,0.00,SCT,,0.19,WeatherDisplay:10.37,2013-06-14 19:43:00,
2013-06-14 15:48:00,74.4,49.8,29.70,North,1,4.0,5.8,42,0.00,SCT,,0.19,WeatherDisplay:10.37,2013-06-14 19:48:00,
2013-06-14 15:53:00,74.8,48.9,29.70,NW,317,4.3,6.9,40,0.00,SCT,,0.19,WeatherDisplay:10.37,2013-06-14 19:53:00,
2013-06-14 15:58:00,75.0,48.4,29.70,NNW,347,2.2,5.0,39,0.00,SCT,,0.19,WeatherDisplay:10.37,2013-06-14 19:58:00,
2013-06-14 16:03:00,75.3,48.6,29.69,North,11,5.3,8.0,39,0.00,FEW,,0.19,WeatherDisplay:10.37,2013-06-14 20:03:00,
2013-06-14 16:08:00,75.3,51.9,29.69,WNW,300,6.1,11.0,44,0.00,FEW,,0.19,WeatherDisplay:10.37,2013-06-14 20:08:00,
2013-06-14 16:13:00,75.1,48.4,29.69,North,358,6.2,10.4,39,0.00,FEW,,0.19,WeatherDisplay:10.37,2013-06-14 20:13:00,
2013-06-14 16:18:00,75.1,48.4,29.69,North,5,4.4,8.1,39,0.00,FEW,,0.19,WeatherDisplay:10.37,2013-06-14 20:18:00,
2013-06-14 16:23:00,75.1,49.8,29.69,NW,314,1.8,5.8,41,0.00,FEW,,0.19,WeatherDisplay:10.37,2013-06-14 20:23:00,
2013-06-14 16:28:00,75.0,48.4,29.69,NNW,333,4.3,6.9,39,0.00,FEW,,0.19,WeatherDisplay:10.37,2013-06-14 20:28:00,
2013-06-14 16:33:00,75.0,46.2,29.69,North,357,4.5,9.2,36,0.00,FEW,,0.19,WeatherDisplay:10.37,2013-06-14 20:33:00,
2013-06-14 16:38:00,75.1,49.8,29.69,NNE,15,5.0,6.9,41,0.00,FEW,,0.19,WeatherDisplay:10.37,2013-06-14 20:38:00,
2013-06-14 16:43:00,75.1,48.4,29.69,NNW,344,4.1,5.8,39,0.00,FEW,,0.19,WeatherDisplay:10.37,2013-06-14 20:43:00,
2013-06-14 16:48:00,75.3,49.3,29.69,NW,307,5.3,10.4,40,0.00,FEW,,0.19,WeatherDisplay:10.37,2013-06-14 20:48:00,
2013-06-14 16:53:00,75.3,48.6,29.69,NNW,340,5.2,6.0,39,0.00,FEW,,0.19,WeatherDisplay:10.37,2013-06-14 20:53:00,
2013-06-14 16:58:00,75.1,49.8,29.69,WNW,286,3.3,5.8,41,0.00,FEW,,0.19,WeatherDisplay:10.37,2013-06-14 20:58:00,
2013-06-14 17:03:00,75.0,47.7,29.69,NW,320,3.0,7.0,38,0.00,SCT,,0.19,WeatherDisplay:10.37,2013-06-14 21:03:00,
2013-06-14 17:08:00,74.8,46.8,29.69,WNW,286,3.1,6.9,37,0.00,SCT,,0.19,WeatherDisplay:10.37,2013-06-14 21:08:00,
2013-06-14 17:13:00,74.6,48.0,29.69,NNW,327,8.6,12.0,39,0.00,SCT,,0.19,WeatherDisplay:10.37,2013-06-14 21:13:00,
2013-06-14 17:18:00,74.3,49.7,29.69,WNW,289,1.7,5.0,42,0.00,SCT,,0.19,WeatherDisplay:10.37,2013-06-14 21:18:00,
2013-06-14 17:23:00,73.9,48.7,29.69,WNW,293,1.7,5.8,41,0.00,SCT,,0.19,WeatherDisplay:10.37,2013-06-14 21:23:00,
2013-06-14 17:28:00,73.7,49.2,29.69,North,350,0.5,2.3,42,0.00,SCT,,0.19,WeatherDisplay:10.37,2013-06-14 21:28:00,
2013-06-14 17:33:00,73.6,50.3,29.69,NW,323,1.0,2.3,44,0.00,SCT,,0.19,WeatherDisplay:10.37,2013-06-14 21:33:00,
2013-06-14 17:38:00,73.2,48.7,29.69,NW,324,1.6,3.5,42,0.00,SCT,,0.19,WeatherDisplay:10.37,2013-06-14 21:38:00,
2013-06-14 17:43:00,73.0,49.2,29.69,NW,324,6.5,8.1,43,0.00,SCT,,0.19,WeatherDisplay:10.37,2013-06-14 21:43:00,
2013-06-14 17:48:00,73.2,50.6,29.69,WNW,293,3.1,4.6,45,0.00,SCT,,0.19,WeatherDisplay:10.37,2013-06-14 21:48:00,
2013-06-14 17:53:00,73.2,50.0,29.69,North,1,1.8,3.5,44,0.00,SCT,,0.19,WeatherDisplay:10.37,2013-06-14 21:53:00,
2013-06-14 17:58:00,73.4,49.5,29.69,NW,307,0.6,1.2,43,0.00,SCT,,0.19,WeatherDisplay:10.37,2013-06-14 21:58:00,
2013-06-14 18:03:00,73.4,49.5,29.69,NW,313,2.4,3.5,43,0.00,FEW,,0.19,WeatherDisplay:10.37,2013-06-14 22:03:00,
2013-06-14 18:08:00,73.6,48.4,29.69,NW,306,1.1,2.3,41,0.00,FEW,,0.19,WeatherDisplay:10.37,2013-06-14 22:08:00,
2013-06-14 18:13:00,73.6,48.4,29.69,NW,316,3.5,6.0,41,0.00,FEW,,0.19,WeatherDisplay:10.37,2013-06-14 22:13:00,
2013-06-14 18:18:00,73.4,48.9,29.70,NW,319,4.2,5.8,42,0.00,FEW,,0.19,WeatherDisplay:10.37,2013-06-14 22:18:00,
2013-06-14 18:23:00,73.6,50.3,29.70,NNW,333,1.1,3.0,44,0.00,FEW,,0.19,WeatherDisplay:10.37,2013-06-14 22:23:00,
2013-06-14 18:28:00,73.6,47.8,29.70,NNW,329,1.4,3.5,40,0.00,FEW,,0.19,WeatherDisplay:10.37,2013-06-14 22:28:00,
2013-06-14 18:33:00,73.7,50.4,29.70,NW,324,1.5,3.5,44,0.00,FEW,,0.19,WeatherDisplay:10.37,2013-06-14 22:33:00,
2013-06-14 18:38:00,73.6,49.7,29.70,WNW,302,0.7,3.5,43,0.00,FEW,,0.19,WeatherDisplay:10.37,2013-06-14 22:38:00,
2013-06-14 18:43:00,73.6,49.1,29.70,WNW,299,0.1,1.2,42,0.00,FEW,,0.19,WeatherDisplay:10.37,2013-06-14 22:43:00,
2013-06-14 18:48:00,73.4,52.5,29.70,West,275,0.0,0.0,48,0.00,FEW,,0.19,WeatherDisplay:10.37,2013-06-14 22:48:00,
2013-06-14 18:53:00,73.4,54.7,29.70,West,276,0.0,0.0,52,0.00,FEW,,0.19,WeatherDisplay:10.37,2013-06-14 22:53:00,
2013-06-14 18:58:00,73.2,55.0,29.70,West,278,0.0,0.0,53,0.00,FEW,,0.19,WeatherDisplay:10.37,2013-06-14 22:58:00,
2013-06-14 19:03:00,72.7,53.5,29.70,WNW,303,0.0,1.2,51,0.00,OVC,,0.19,WeatherDisplay:10.37,2013-06-14 23:03:00,
2013-06-14 19:08:00,72.5,54.4,29.70,NW,305,0.1,2.3,53,0.00,OVC,,0.19,WeatherDisplay:10.37,2013-06-14 23:08:00,
2013-06-14 19:13:00,72.4,55.8,29.71,WNW,303,0.0,0.0,56,0.00,OVC,,0.19,WeatherDisplay:10.37,2013-06-14 23:13:00,
2013-06-14 19:18:00,72.4,57.3,29.71,WNW,303,0.0,0.0,59,0.00,OVC,,0.19,WeatherDisplay:10.37,2013-06-14 23:18:00,
2013-06-14 19:23:00,72.2,56.1,29.71,WNW,302,0.0,0.0,57,0.00,OVC,,0.19,WeatherDisplay:10.37,2013-06-14 23:23:00,
2013-06-14 19:28:00,72.0,56.9,29.71,WNW,300,0.4,2.3,59,0.00,OVC,,0.19,WeatherDisplay:10.37,2013-06-14 23:28:00,
2013-06-14 19:33:00,71.7,56.1,29.71,WNW,302,0.0,0.0,58,0.00,OVC,,0.19,WeatherDisplay:10.37,2013-06-14 23:33:00,
2013-06-14 19:38:00,71.5,56.4,29.71,WNW,302,0.0,0.0,59,0.00,OVC,,0.19,WeatherDisplay:10.37,2013-06-14 23:38:00,
2013-06-14 19:43:00,71.3,57.2,29.72,WNW,302,0.0,0.0,61,0.00,OVC,,0.19,WeatherDisplay:10.37,2013-06-14 23:43:00,
2013-06-14 19:48:00,70.8,57.1,29.72,WNW,296,0.0,0.0,62,0.00,OVC,,0.19,WeatherDisplay:10.37,2013-06-14 23:48:00,
2013-06-14 19:53:00,70.5,56.9,29.72,WNW,285,0.0,0.0,62,0.00,OVC,,0.19,WeatherDisplay:10.37,2013-06-14 23:53:00,
2013-06-14 19:58:00,69.8,56.6,29.72,WNW,299,0.0,0.0,63,0.00,OVC,,0.19,WeatherDisplay:10.37,2013-06-14 23:58:00,
2013-06-14 20:03:00,69.3,57.0,29.72,WNW,288,0.0,0.0,65,0.00,CLR,,0.19,WeatherDisplay:10.37,2013-06-15 00:03:00,
2013-06-14 20:08:00,68.6,57.2,29.72,West,279,0.0,0.0,67,0.00,CLR,,0.19,WeatherDisplay:10.37,2013-06-15 00:08:00,
2013-06-14 20:13:00,68.1,56.7,29.72,West,276,0.0,0.0,67,0.00,CLR,,0.19,WeatherDisplay:10.37,2013-06-15 00:13:00,
2013-06-14 20:18:00,67.5,56.6,29.73,WNW,303,0.0,0.0,68,0.00,CLR,,0.19,WeatherDisplay:10.37,2013-06-15 00:18:00,
2013-06-14 20:23:00,66.8,56.3,29.73,WNW,303,0.0,0.0,69,0.00,CLR,,0.19,WeatherDisplay:10.37,2013-06-15 00:23:00,
2013-06-14 20:28:00,66.1,56.0,29.73,WNW,302,0.0,0.0,70,0.00,CLR,,0.19,WeatherDisplay:10.37,2013-06-15 00:28:00,
2013-06-14 20:33:00,65.5,55.5,29.74,WNW,303,0.0,0.0,70,0.00,CLR,,0.19,WeatherDisplay:10.37,2013-06-15 00:33:00,
2013-06-14 20:38:00,65.0,55.4,29.74,WNW,303,0.0,0.0,71,0.00,CLR,,0.19,WeatherDisplay:10.37,2013-06-15 00:38:00,
2013-06-14 20:43:00,64.5,55.3,29.74,WNW,303,0.0,0.0,72,0.00,CLR,,0.19,WeatherDisplay:10.37,2013-06-15 00:43:00,
2013-06-14 20:48:00,63.9,55.1,29.74,WNW,303,0.0,0.0,73,0.00,CLR,,0.19,WeatherDisplay:10.37,2013-06-15 00:48:00,
2013-06-14 20:53:00,63.4,55.3,29.74,WNW,303,0.0,0.0,75,0.00,CLR,,0.19,WeatherDisplay:10.37,2013-06-15 00:53:00,
2013-06-14 20:58:00,62.9,55.2,29.74,WNW,303,0.0,0.0,76,0.00,CLR,,0.19,WeatherDisplay:10.37,2013-06-15 00:58:00,
2013-06-14 21:03:00,62.4,55.1,29.74,NW,305,0.0,0.0,77,0.00,FEW,,0.19,WeatherDisplay:10.37,2013-06-15 01:03:00,
2013-06-14 21:08:00,62.1,54.8,29.74,WNW,303,0.0,0.0,77,0.00,FEW,,0.19,WeatherDisplay:10.37,2013-06-15 01:08:00,
2013-06-14 21:13:00,61.8,54.9,29.74,WNW,303,0.0,0.0,78,0.00,FEW,,0.19,WeatherDisplay:10.37,2013-06-15 01:13:00,
2013-06-14 21:18:00,61.5,54.6,29.74,WNW,303,0.0,0.0,78,0.00,FEW,,0.19,WeatherDisplay:10.37,2013-06-15 01:18:00,
2013-06-14 21:23:00,61.2,54.6,29.74,WNW,303,0.0,0.0,79,0.00,FEW,,0.19,WeatherDisplay:10.37,2013-06-15 01:23:00,
2013-06-14 21:28:00,60.9,54.3,29.75,WNW,303,0.0,0.0,79,0.00,FEW,,0.19,WeatherDisplay:10.37,2013-06-15 01:28:00,
2013-06-14 21:33:00,60.7,54.1,29.75,WNW,303,0.0,0.0,79,0.00,FEW,,0.19,WeatherDisplay:10.37,2013-06-15 01:33:00,
2013-06-14 21:38:00,60.4,54.2,29.75,WNW,303,0.0,0.0,80,0.00,FEW,,0.19,WeatherDisplay:10.37,2013-06-15 01:38:00,
2013-06-14 21:43:00,60.2,54.0,29.75,NW,305,0.0,1.2,80,0.00,FEW,,0.19,WeatherDisplay:10.37,2013-06-15 01:43:00,
2013-06-14 21:48:00,59.9,53.7,29.76,NW,305,0.2,1.2,80,0.00,FEW,,0.19,WeatherDisplay:10.37,2013-06-15 01:48:00,
2013-06-14 21:53:00,59.8,54.0,29.76,NW,305,0.0,0.0,81,0.00,FEW,,0.19,WeatherDisplay:10.37,2013-06-15 01:53:00,
2013-06-14 21:58:00,59.5,53.7,29.76,NW,316,0.6,2.3,81,0.00,FEW,,0.19,WeatherDisplay:10.37,2013-06-15 01:58:00,
2013-06-14 22:03:00,59.3,53.8,29.77,NW,317,0.3,2.3,82,0.00,CLR,,0.19,WeatherDisplay:10.37,2013-06-15 02:03:00,
2013-06-14 22:08:00,59.2,54.0,29.77,NW,316,0.0,0.0,83,0.00,CLR,,0.19,WeatherDisplay:10.37,2013-06-15 02:08:00,
2013-06-14 22:13:00,59.0,53.8,29.77,North,358,0.8,2.3,83,0.00,CLR,,0.19,WeatherDisplay:10.37,2013-06-15 02:13:00,
2013-06-14 22:18:00,58.9,54.1,29.77,North,8,0.5,2.3,84,0.00,CLR,,0.19,WeatherDisplay:10.37,2013-06-15 02:18:00,
2013-06-14 22:23:00,58.9,54.1,29.77,North,8,0.5,1.2,84,0.00,CLR,,0.19,WeatherDisplay:10.37,2013-06-15 02:23:00,
2013-06-14 22:28:00,58.7,53.9,29.77,North,8,0.1,2.3,84,0.00,CLR,,0.19,WeatherDisplay:10.37,2013-06-15 02:28:00,
2013-06-14 22:33:00,58.6,53.8,29.77,North,8,0.5,2.3,84,0.00,CLR,,0.19,WeatherDisplay:10.37,2013-06-15 02:33:00,
2013-06-14 22:38:00,58.4,53.6,29.77,North,8,0.0,0.0,84,0.00,CLR,,0.19,WeatherDisplay:10.37,2013-06-15 02:38:00,
2013-06-14 22:43:00,58.3,53.8,29.77,North,8,0.1,1.2,85,0.00,CLR,,0.19,WeatherDisplay:10.37,2013-06-15 02:43:00,
2013-06-14 22:48:00,58.3,53.8,29.77,North,8,0.0,0.0,85,0.00,CLR,,0.19,WeatherDisplay:10.37,2013-06-15 02:48:00,
2013-06-14 22:53:00,58.1,53.6,29.77,North,8,0.0,0.0,85,0.00,CLR,,0.19,WeatherDisplay:10.37,2013-06-15 02:53:00,
2013-06-14 22:58:00,58.1,53.9,29.77,North,9,0.0,0.0,86,0.00,CLR,,0.19,WeatherDisplay:10.37,2013-06-15 02:58:00,
2013-06-14 23:03:00,58.0,53.5,29.77,North,8,0.0,0.0,85,0.00,CLR,,0.19,WeatherDisplay:10.37,2013-06-15 03:03:00,
2013-06-14 23:08:00,57.8,53.3,29.77,North,8,0.0,1.2,85,0.00,CLR,,0.19,WeatherDisplay:10.37,2013-06-15 03:08:00,
2013-06-14 23:13:00,57.7,53.2,29.77,North,8,0.0,0.0,85,0.00,CLR,,0.19,WeatherDisplay:10.37,2013-06-15 03:13:00,
2013-06-14 23:18:00,57.5,53.0,29.78,North,8,0.0,1.2,85,0.00,CLR,,0.19,WeatherDisplay:10.37,2013-06-15 03:18:00,
2013-06-14 23:23:00,57.3,52.8,29.78,North,8,0.2,1.2,85,0.00,CLR,,0.19,WeatherDisplay:10.37,2013-06-15 03:23:00,
2013-06-14 23:28:00,57.2,52.7,29.78,North,8,0.5,2.3,85,0.00,CLR,,0.19,WeatherDisplay:10.37,2013-06-15 03:28:00,
2013-06-14 23:33:00,57.0,52.5,29.78,North,11,0.8,2.3,85,0.00,CLR,,0.19,WeatherDisplay:10.37,2013-06-15 03:33:00,
2013-06-14 23:38:00,57.0,52.5,29.78,North,350,2.0,3.5,85,0.00,CLR,,0.19,WeatherDisplay:10.37,2013-06-15 03:38:00,
2013-06-14 23:43:00,56.9,52.4,29.79,North,2,0.6,2.3,85,0.00,CLR,,0.19,WeatherDisplay:10.37,2013-06-15 03:43:00,
2013-06-14 23:48:00,56.9,52.4,29.79,NNW,334,2.0,3.5,85,0.00,CLR,,0.19,WeatherDisplay:10.37,2013-06-15 03:48:00,
2013-06-14 23:53:00,56.9,52.4,29.79,NNE,19,1.6,2.3,85,0.00,CLR,,0.19,WeatherDisplay:10.37,2013-06-15 03:53:00,
2013-06-14 23:58:00,57.0,52.2,29.79,NNW,344,1.2,3.5,84,0.00,CLR,,0.19,WeatherDisplay:10.37,2013-06-15 03:58:00,